RH
16 16 15 14 15 17 18 20 19 16 15 15 14 13 11 11 11 11 14 15 15 14 11 12 13 12 12 11 12 13 17 20 21 26 30 28 27 28 29 29 30 30 30 34 38 41 42 44 51 55 57 65 70 71 74 76 78 73 70 72 72 66 58 54 52 47 43 40 41 44 45 47 49 51 55 56 58 60 65 68 67 66 65 67 74 72
18 16 15 15 18 21 22 25 24 20 19 17 15 13 12 12 11 11 15 15 15 15 12 14 13 12 13 13 13 14 15 16 18 24 27 27 26 24 25 27 29 30 28 31 38 41 41 42 49 56 58 63 67 69 72 73 74 72 68 69 69 63 56 53 50 44 43 42 41 41 40 40 41 46 49 49 55 60 65 68 64 63 62 63 71 73
15 15 16 17 21 26 29 29 26 23 22 18 14 14 13 12 11 14 18 17 16 14 12 14 14 11 14 13 13 14 12 14 16 20 23 24 24 22 22 24 26 28 30 33 39 40 39 40 45 53 57 62 64 66 70 71 72 72 67 66 66 60 54 55 52 43 42 45 46 44 40 39 40 45 51 51 55 59 61 65 64 65 68 67 69 70
14 15 17 20 24 27 31 32 28 24 21 18 14 15 15 14 14 15 19 20 20 19 15 14 15 12 13 14 14 14 14 19 23 22 23 23 23 22 21 22 23 26 31 36 40 40 39 40 43 47 53 61 63 63 68 69 71 70 64 64 66 59 53 54 50 44 46 47 49 50 48 47 45 45 51 54 56 60 60 61 62 67 71 70 68 68
12 16 18 22 25 25 27 30 27 21 18 19 18 16 15 17 16 14 18 21 22 25 21 16 14 11 12 14 14 15 16 19 20 18 20 20 19 20 22 24 25 26 29 33 37 41 41 40 42 44 49 57 61 61 64 67 69 65 60 64 64 57 53 53 49 49 49 44 44 47 45 45 43 44 49 50 53 57 58 56 59 65 68 68 70 68
14 25 24 21 23 22 23 25 23 20 17 19 21 18 16 17 18 17 18 19 19 22 22 18 15 13 12 13 14 15 16 15 15 15 15 16 15 16 18 20 23 25 27 29 32 37 40 41 42 43 46 52 55 58 62 64 65 60 57 63 62 55 53 51 50 50 45 40 41 40 35 35 35 37 42 45 48 52 53 54 56 63 68 70 72 70
16 26 25 22 24 22 21 20 19 20 16 17 19 16 15 16 18 20 19 19 17 16 21 20 16 14 13 14 15 15 15 13 14 15 14 14 14 14 14 15 17 20 23 27 29 32 37 42 43 42 46 48 49 53 59 63 63 56 58 63 60 53 50 50 51 49 43 40 41 37 30 29 30 31 36 43 48 49 50 54 57 63 70 72 73 72
17 22 23 25 25 21 18 17 19 20 15 19 24 16 14 16 19 22 20 18 17 16 22 20 15 16 14 13 15 16 15 13 13 15 15 14 14 14 14 14 14 17 20 24 28 32 34 39 42 43 46 46 46 50 57 62 60 56 59 60 55 50 47 51 53 48 44 39 38 38 32 28 28 31 36 42 47 49 51 55 57 59 66 70 69 70
22 21 21 21 20 18 14 13 18 20 16 23 27 18 14 17 19 20 19 17 18 20 21 18 16 19 16 12 15 15 13 13 14 14 15 15 15 16 18 18 18 19 21 22 24 29 33 37 40 42 46 45 44 48 54 59 58 59 59 52 50 49 45 51 53 47 46 41 37 37 32 28 28 32 35 37 42 48 51 54 55 55 60 65 65 65
21 18 18 16 14 14 12 14 18 19 22 25 24 19 16 18 18 20 19 16 19 23 21 18 20 21 17 13 13 15 15 14 15 15 14 15 14 16 20 22 21 20 22 22 21 24 28 34 39 41 44 44 46 49 52 55 57 59 56 48 50 49 44 51 52 46 46 44 40 37 33 30 29 31 33 34 41 49 51 52 54 54 55 58 59 61
15 17 19 16 12 12 14 20 22 21 23 24 20 18 18 18 18 19 18 16 19 23 20 20 21 20 18 13 11 17 19 18 18 17 17 17 15 17 21 21 20 20 23 22 22 23 23 29 38 42 43 44 49 51 50 53 56 56 53 50 53 49 43 49 50 47 47 46 43 39 34 32 31 32 34 37 43 47 48 49 50 51 53 54 55 58
13 16 18 14 13 14 14 18 22 22 21 21 19 18 20 21 21 20 19 20 23 23 22 21 19 20 19 14 14 18 19 20 21 19 20 19 17 20 22 21 21 24 26 25 25 26 24 27 37 44 46 47 52 53 51 53 54 53 54 53 53 49 45 48 48 47 48 47 45 40 36 34 32 35 36 37 42 43 44 46 46 47 50 53 54 55
14 13 13 13 15 14 12 14 18 20 19 20 19 20 23 23 25 26 22 21 21 22 24 22 19 21 18 14 18 20 18 19 21 19 19 20 21 24 23 23 25 27 28 28 27 27 27 29 39 47 46 47 53 53 51 54 53 53 55 52 50 48 46 46 47 47 49 49 46 41 40 35 31 35 36 35 39 41 40 41 44 44 44 49 52 53
14 13 12 14 16 14 12 13 17 19 19 19 18 20 24 24 27 30 24 19 17 20 25 22 21 21 16 16 21 21 19 19 19 18 20 21 24 26 24 23 27 29 30 30 30 30 30 32 40 46 44 46 51 50 49 52 53 53 51 47 47 47 46 47 47 47 49 50 48 43 42 38 33 34 35 34 36 39 38 38 42 41 39 44 48 51
15 16 15 15 16 15 13 12 14 16 16 17 15 16 21 22 26 27 22 19 18 20 25 25 24 21 18 22 23 20 19 17 16 16 19 22 22 25 26 25 28 31 33 35 36 37 37 38 43 45 43 45 48 48 48 50 53 52 44 43 46 45 47 48 47 48 48 48 49 46 44 43 37 32 32 33 34 38 39 38 40 40 38 41 44 49
16 16 14 15 16 14 14 13 12 13 15 16 14 15 19 18 19 22 25 27 22 21 25 26 23 17 19 24 21 17 17 15 16 16 17 21 23 25 28 28 31 33 35 39 41 43 44 43 45 47 46 48 49 50 50 50 54 50 40 43 48 44 46 49 49 50 47 45 49 51 50 50 46 40 34 31 34 40 43 42 40 39 38 39 40 46
18 17 14 15 15 14 15 14 13 13 15 17 16 16 16 13 15 20 28 32 28 24 23 21 20 18 20 23 19 17 17 14 15 16 17 21 24 27 30 32 33 35 37 41 44 48 49 46 45 47 48 50 51 52 52 52 53 47 42 48 50 43 46 51 52 52 50 50 52 53 54 52 50 48 42 37 39 40 42 45 44 41 40 40 41 47
21 20 15 13 15 16 15 14 13 12 13 16 17 15 13 14 16 19 26 28 27 27 23 19 21 20 19 22 20 17 17 17 15 14 17 21 22 25 30 33 35 37 38 39 43 49 53 52 50 49 48 49 50 50 50 52 50 47 49 52 49 46 47 48 53 57 59 54 43 42 48 42 37 43 46 47 46 41 37 39 46 48 46 45 45 49
23 21 17 14 16 16 15 15 15 13 13 14 15 13 14 20 20 20 26 28 26 28 25 20 21 19 15 18 21 19 18 18 16 15 17 19 21 25 30 33 35 39 40 37 40 46 51 55 57 55 52 50 53 54 52 52 50 48 50 50 49 52 49 47 53 58 58 51 39 43 51 41 35 43 49 52 55 52 43 34 37 47 50 50 49 49
24 25 22 16 16 17 15 15 16 15 15 15 15 13 14 19 20 19 23 25 25 28 28 24 22 18 14 14 17 18 18 17 17 17 17 19 22 26 31 35 36 39 42 38 37 42 47 52 57 60 57 53 55 58 57 57 56 53 52 50 51 55 53 51 54 54 53 51 50 56 59 49 46 49 50 54 59 59 53 40 35 39 47 54 52 47
24 28 26 17 16 18 17 17 17 16 17 17 18 18 17 19 18 18 20 18 20 25 26 27 25 18 14 13 14 16 16 17 18 18 19 21 23 27 33 38 38 39 41 40 37 38 41 45 50 55 57 55 57 60 62 62 61 59 59 56 55 57 56 55 56 55 54 55 57 61 60 56 57 57 54 56 58 58 56 51 46 41 43 53 54 48
25 26 27 22 19 19 18 18 19 19 20 19 18 18 17 18 19 23 24 18 17 21 21 24 25 19 17 16 13 13 17 17 16 18 19 21 24 30 36 40 40 39 38 39 37 36 37 39 41 45 49 52 56 59 62 64 62 63 63 60 59 59 58 57 56 55 55 57 58 59 57 55 57 60 60 59 60 59 56 53 53 51 48 52 55 52
36 26 22 23 19 15 15 18 21 21 21 20 20 18 16 18 19 23 26 21 18 20 19 21 24 21 23 23 17 16 18 16 16 18 19 23 29 34 37 38 40 39 36 35 35 34 34 35 36 38 41 47 52 55 58 60 60 62 62 58 59 62 63 62 60 59 58 60 60 60 60 57 55 57 60 61 61 60 58 56 56 56 53 52 54 55
41 28 20 21 17 12 13 17 20 21 22 21 21 20 19 20 19 21 24 22 22 23 21 26 28 24 27 29 24 22 21 20 21 22 21 26 34 36 37 38 39 38 36 34 34 33 32 31 31 32 34 37 42 48 52 52 53 57 58 56 57 61 63 64 66 67 65 63 63 64 66 65 62 60 61 63 62 60 61 61 59 59 58 54 56 58
31 24 24 25 21 19 19 18 19 21 22 22 22 22 22 21 21 25 25 24 28 26 21 25 27 22 25 29 25 22 22 20 21 21 22 29 34 34 35 37 37 37 36 34 35 35 33 31 30 31 32 32 34 39 44 47 48 51 54 55 57 58 58 61 68 74 74 73 72 73 74 75 73 70 66 67 68 66 65 63 61 62 59 55 57 59
26 25 29 28 26 27 24 21 22 23 22 21 23 24 24 23 24 28 28 28 31 28 23 26 25 21 24 26 22 21 21 19 20 20 22 27 30 31 33 36 36 36 35 35 37 37 36 35 33 34 35 33 33 35 38 41 42 45 51 56 58 57 56 56 60 67 76 81 82 81 80 78 75 72 70 71 73 72 69 65 63 63 60 57 57 60
30 29 30 29 27 26 22 19 21 25 26 25 24 24 24 25 26 28 28 29 29 27 26 27 25 24 26 24 22 22 21 21 22 23 23 27 31 33 34 35 35 34 34 34 35 36 36 37 37 37 38 37 36 36 36 38 39 44 51 55 54 56 58 55 50 53 63 73 79 80 78 75 73 72 71 71 71 71 70 69 67 65 62 60 59 62
35 32 32 33 31 26 22 20 21 24 27 25 23 24 25 26 28 30 31 29 26 27 28 25 23 26 26 21 20 21 21 22 24 23 23 27 32 34 36 36 34 33 32 31 33 35 35 37 39 40 40 39 37 37 38 38 40 46 51 50 50 55 59 57 53 52 56 62 66 69 71 72 74 74 74 73 72 72 70 69 69 67 65 63 62 63
35 31 31 33 31 26 22 22 22 23 25 23 23 27 28 29 31 33 33 29 26 30 30 24 24 28 25 19 17 18 19 20 21 21 23 27 30 32 34 35 32 31 31 30 33 35 35 36 39 41 43 41 38 36 37 38 40 45 49 49 50 53 55 57 56 53 52 52 54 57 60 65 71 73 74 74 74 75 73 71 70 69 68 67 67 66
31 31 32 29 27 26 22 21 21 22 24 25 26 26 26 28 30 31 32 30 28 30 27 26 34 37 28 19 18 20 21 18 18 23 27 30 32 33 32 31 30 30 30 31 33 34 34 36 37 40 42 42 40 37 38 40 41 44 48 50 50 51 51 52 52 49 48 47 48 52 52 56 64 68 69 70 71 73 75 74 73 72 71 69 67 66
32 35 37 33 32 30 25 22 22 21 22 25 26 25 25 27 27 29 32 32 33 33 30 33 45 43 28 18 17 21 25 22 21 27 31 32 32 33 32 31 30 31 30 31 32 31 32 35 36 38 39 40 41 40 40 44 44 44 50 52 50 49 49 51 51 49 47 45 45 48 48 49 55 60 64 67 68 71 73 74 75 75 74 71 69 72
33 34 34 34 36 34 26 22 21 20 21 23 25 25 25 28 30 30 32 33 36 39 38 40 43 37 26 21 19 22 26 24 20 23 31 35 34 33 33 32 32 32 30 29 30 30 31 32 34 38 38 37 38 37 37 40 39 40 46 50 50 49 50 53 53 50 48 45 42 42 43 45 47 51 59 65 66 68 71 72 73 75 76 75 74 79
31 32 31 31 35 33 25 21 23 26 28 28 31 33 30 29 30 30 29 29 30 35 39 39 36 34 31 27 23 22 26 27 25 27 34 38 37 35 33 32 32 32 30 29 29 29 31 31 32 37 39 38 37 36 36 38 39 42 48 51 51 50 50 50 49 49 50 48 44 42 41 42 44 45 53 61 65 69 72 72 71 73 77 78 78 79
33 34 31 28 33 34 26 24 31 36 35 34 39 43 40 36 35 34 34 36 36 37 38 35 33 36 37 32 29 30 31 34 35 36 37 38 38 37 34 33 33 31 30 31 29 28 32 34 36 39 40 40 40 41 43 43 44 48 51 50 49 50 49 47 45 47 49 48 47 46 44 44 45 45 49 56 62 68 72 73 72 73 75 77 78 79
35 36 32 28 31 32 27 31 42 45 39 37 40 41 38 37 37 35 40 47 49 47 46 41 38 42 42 37 37 39 38 37 35 32 32 33 35 37 36 34 33 31 31 33 33 34 36 37 38 40 41 42 43 43 44 43 44 46 46 46 47 48 47 46 45 45 46 47 48 49 48 48 49 50 52 55 61 67 71 72 74 74 74 75 78 78
35 35 32 30 31 33 33 37 45 42 33 33 40 42 40 39 39 39 43 50 51 49 47 45 43 45 44 41 40 40 37 33 29 27 29 31 33 36 36 36 34 32 34 36 38 39 39 39 39 40 43 45 44 42 41 40 42 44 45 46 47 45 44 44 44 42 42 45 49 51 54 55 56 57 57 58 62 66 68 71 74 75 75 77 79 79
32 33 32 33 33 35 37 36 36 35 31 34 45 52 52 50 51 52 51 49 47 44 43 44 43 42 41 41 41 39 35 33 30 28 27 27 30 33 33 35 36 36 36 36 37 38 38 39 40 41 44 47 46 45 44 44 45 46 47 47 46 43 42 41 41 39 39 43 49 53 57 59 60 61 61 61 63 64 67 71 72 73 75 76 78 81
32 32 33 38 36 33 37 40 39 39 39 44 51 54 52 52 55 58 55 48 43 40 39 41 42 40 39 40 39 39 39 38 34 31 30 28 28 30 30 30 31 32 32 32 32 34 35 37 39 39 41 44 45 46 46 46 46 47 47 48 46 43 41 40 38 36 38 44 50 55 59 61 61 62 63 64 63 63 67 69 69 71 74 75 76 79
34 32 31 37 38 34 39 47 45 41 45 55 56 46 41 46 52 57 56 49 43 40 37 39 42 41 39 40 39 40 44 42 33 31 34 31 28 29 29 28 27 28 28 28 29 31 33 36 40 41 40 41 42 44 46 46 45 44 45 46 45 43 43 42 39 36 39 46 52 57 61 64 66 67 67 67 64 64 66 68 67 69 71 74 76 75
37 36 32 36 40 37 40 46 41 35 45 59 55 42 38 46 55 60 59 53 47 42 36 37 42 42 39 40 39 38 41 39 32 31 35 32 27 28 29 29 29 29 28 27 29 33 35 35 36 38 39 40 40 41 42 42 41 41 43 45 45 43 43 42 39 37 40 46 52 57 61 64 67 69 71 72 69 64 65 67 68 68 69 73 74 72
39 39 37 38 39 36 39 44 38 35 48 58 50 39 38 45 54 59 56 51 47 42 37 36 40 41 40 40 40 38 36 34 32 32 33 30 28 29 29 29 29 30 30 31 34 37 37 36 36 37 38 38 39 40 40 40 40 41 42 44 44 44 43 41 37 37 42 47 49 53 57 60 64 68 72 75 72 65 64 66 70 73 76 78 78 77
44 45 41 39 40 36 37 41 38 38 49 54 44 35 36 45 53 54 48 44 42 39 38 37 37 38 40 40 41 40 37 35 34 33 32 31 31 32 30 29 30 31 31 33 37 38 39 39 40 41 40 40 41 40 39 40 41 41 43 44 45 45 44 42 38 39 44 47 47 51 57 61 65 70 74 76 72 66 65 68 75 83 86 88 88 87
47 51 45 38 38 38 39 41 42 45 49 48 44 41 42 47 50 46 41 39 38 36 38 38 37 37 40 42 42 41 38 37 37 36 36 36 35 34 33 32 32 32 32 33 34 34 35 37 38 39 40 41 42 42 42 43 43 43 45 45 46 47 46 44 42 42 46 50 52 54 58 62 67 71 76 79 75 68 66 74 86 95 96 97 97 92
39 44 44 38 37 44 48 44 42 46 45 41 44 46 44 43 42 39 38 39 37 35 37 40 41 40 41 44 44 41 41 41 40 39 40 40 38 37 36 35 35 34 33 34 34 33 34 35 37 39 40 40 42 44 46 47 47 47 47 47 48 48 48 47 46 45 49 55 59 58 57 61 67 70 74 79 79 75 76 85 95 100 100 97 94 90
34 35 41 44 44 47 48 42 36 37 35 32 35 38 37 37 36 35 36 38 38 36 36 38 41 40 39 41 41 40 40 39 38 37 38 38 38 37 36 35 34 34 34 35 36 37 37 36 37 39 41 43 45 47 49 52 53 53 52 52 52 52 52 51 50 49 52 57 59 59 59 61 68 74 78 82 85 87 92 97 100 101 99 91 85 86
29 31 37 42 40 38 37 35 34 34 32 29 30 30 31 33 33 32 35 38 39 38 37 38 40 39 37 38 39 40 39 37 36 37 37 37 36 35 35 35 34 33 33 33 33 35 37 38 40 41 43 46 50 51 52 53 54 53 52 51 51 52 55 55 53 52 54 58 60 63 64 64 70 79 85 89 94 97 99 101 100 97 92 86 83 86
28 36 41 41 39 41 41 36 31 32 31 28 28 28 27 28 28 29 33 36 37 38 38 37 38 37 37 37 38 39 39 38 39 39 37 36 36 35 34 35 34 34 35 35 35 38 41 44 45 44 44 45 46 47 47 46 46 47 46 46 47 48 51 53 53 53 54 58 64 70 70 70 77 86 92 97 100 101 100 97 93 88 85 84 84 82
31 41 42 38 37 41 40 32 26 26 27 26 26 27 26 27 28 29 32 34 35 37 37 36 35 35 33 33 34 35 36 37 38 38 36 34 34 33 32 33 33 34 35 37 40 43 45 47 46 44 44 44 44 45 46 46 45 45 46 48 49 50 51 52 55 58 59 63 70 74 74 78 87 95 99 99 98 97 95 87 79 75 74 72 68 64
33 37 35 35 38 38 35 30 28 30 30 27 26 27 26 28 30 31 33 34 34 35 35 34 34 33 32 32 32 33 34 34 35 36 36 35 34 33 33 34 36 37 39 42 45 46 47 48 47 46 46 47 47 49 50 52 52 52 53 54 55 56 59 60 63 66 67 71 77 78 78 87 96 98 96 93 90 89 86 78 72 72 70 64 56 51
36 37 35 37 42 40 35 30 32 38 40 34 31 32 33 34 37 40 40 37 35 35 38 39 37 35 34 33 32 33 35 37 38 40 41 40 38 37 39 41 43 45 46 48 50 51 51 51 49 50 50 50 51 52 53 56 59 60 61 63 63 65 69 71 72 73 75 80 83 81 82 93 100 95 88 84 84 82 77 73 71 69 66 61 54 48
34 38 40 43 46 44 38 34 38 47 49 41 38 41 41 40 42 44 42 41 40 41 44 48 50 48 44 40 37 38 41 44 46 46 46 45 45 45 47 49 51 52 52 53 53 53 52 51 52 54 55 56 57 58 60 62 63 63 65 67 69 73 76 76 77 79 81 84 85 84 88 97 98 90 82 79 80 80 78 78 77 67 55 49 46 46
Wind_Speed
3 4 5 2 0 3 2 2 4 3 3 2 3 4 4 4 4 4 5 5 3 4 4 2 3 3 1 1 4 4 4 6 8 7 7 6 7 7 8 10 11 11 9 10 12 13 15 15 13 12 11 11 11 12 13 13 13 13 13 12 12 11 10 9 8 6 5 5 5 4 4 4 4 3 3 2 1 2 3 4 4 4 4 3 3 3
3 5 2 1 3 4 1 1 0 1 2 4 5 6 5 6 4 5 5 4 2 5 3 3 5 6 3 1 3 4 5 7 8 8 8 8 8 7 8 10 10 10 8 9 11 12 14 15 15 13 11 12 13 13 14 15 14 14 14 13 12 12 11 10 9 7 6 4 4 4 4 4 4 4 3 3 4 4 5 6 5 5 4 3 3 3
6 5 3 5 3 3 2 3 4 4 4 5 5 6 6 5 4 5 6 4 2 4 3 2 6 7 4 3 3 5 6 5 5 6 7 7 8 9 9 9 9 10 10 10 10 12 14 15 16 14 13 13 14 14 15 15 15 15 15 13 13 13 12 11 9 8 7 6 4 4 5 4 5 5 4 5 5 5 5 6 6 6 6 5 4 4
4 3 6 5 2 4 4 4 6 5 4 6 5 6 5 3 4 4 6 6 3 3 5 2 5 7 5 6 5 6 5 3 3 4 4 5 7 8 8 8 9 10 11 11 11 11 13 15 17 17 15 15 14 15 16 16 16 16 15 14 14 14 13 11 11 9 8 8 7 6 6 6 6 6 6 6 6 5 5 6 7 7 7 6 6 5
1 7 6 3 3 5 5 6 7 6 5 5 5 7 4 3 5 5 3 5 4 2 3 5 7 8 7 8 7 7 6 5 5 6 5 5 5 6 7 8 9 9 10 11 11 12 13 15 18 19 18 17 16 16 17 19 18 17 16 16 15 15 13 12 11 10 9 10 9 8 8 8 7 7 6 6 5 5 4 5 6 7 7 7 7 6
1 6 3 4 4 6 6 6 7 6 4 5 7 9 7 4 5 5 2 3 6 5 2 4 7 4 5 7 7 7 7 8 7 7 6 5 5 6 7 8 9 9 9 10 11 12 14 16 18 19 20 19 19 18 18 20 19 19 17 16 16 15 14 13 12 11 11 11 11 11 10 9 8 7 6 5 5 5 4 5 6 6 7 7 7 8
3 4 3 4 5 6 6 6 6 6 7 4 7 9 9 7 6 6 5 5 6 3 3 2 7 3 3 6 5 6 6 7 8 8 6 5 6 6 6 7 7 8 9 9 10 11 13 15 17 18 20 21 21 19 19 19 19 19 17 17 17 16 14 14 13 13 12 12 12 12 11 9 8 7 7 6 6 6 5 6 6 7 7 7 8 8
4 5 5 5 5 6 7 5 6 8 8 1 4 7 9 8 7 7 6 6 5 3 2 5 6 5 5 5 5 5 6 7 8 8 7 5 5 5 5 6 6 7 7 8 9 11 13 15 17 19 21 22 21 20 20 19 20 20 18 19 19 17 16 16 15 15 13 12 12 12 11 10 8 7 8 8 7 7 6 6 6 6 7 7 7 8
4 5 6 6 6 7 7 2 4 9 7 1 2 4 6 7 6 6 6 6 3 3 5 7 5 6 7 4 6 5 8 9 7 5 4 4 4 4 3 4 5 6 7 8 9 10 11 14 18 19 19 21 21 21 21 20 21 20 19 21 20 18 18 18 18 17 15 13 13 12 12 11 9 7 7 8 7 7 7 7 6 6 6 7 7 8
3 3 2 5 6 6 4 3 2 7 4 2 3 4 5 5 5 5 6 7 4 5 9 5 5 5 6 5 6 5 6 5 4 3 2 2 2 1 1 2 4 5 6 8 10 11 11 14 17 17 18 19 20 20 20 20 20 21 21 22 21 19 19 19 20 19 16 15 13 12 12 12 11 9 7 7 8 8 7 7 7 6 6 6 7 8
3 2 1 5 7 4 1 4 2 2 1 4 6 6 6 6 5 5 6 5 6 7 7 4 5 4 6 6 5 2 1 2 1 1 1 4 5 6 6 5 5 5 5 6 8 10 12 14 14 15 17 19 19 20 20 20 21 22 22 22 20 20 19 19 21 21 18 16 15 13 13 13 12 11 9 8 8 8 8 7 7 7 6 7 7 8
5 6 4 5 6 4 2 3 1 1 4 5 6 6 6 6 5 5 6 4 7 7 2 4 5 5 7 5 1 3 4 4 2 2 4 6 7 7 7 7 7 6 6 6 7 8 10 12 13 14 16 18 19 20 20 20 21 22 22 21 20 21 21 20 22 22 20 18 16 15 14 14 14 12 11 9 9 9 9 8 8 7 7 7 7 7
5 6 4 4 5 6 8 6 4 4 6 7 7 7 6 6 5 6 6 6 7 4 4 5 4 5 8 4 5 6 5 5 3 3 4 6 6 7 7 7 6 6 6 6 5 5 7 9 12 14 16 17 18 20 21 20 21 21 21 23 23 23 23 22 22 23 21 19 18 16 15 15 14 13 12 10 9 9 9 8 8 8 7 7 8 7
4 5 6 5 5 6 9 7 5 5 7 8 8 7 7 6 6 7 7 6 7 3 5 5 4 5 8 2 7 7 5 5 4 3 3 4 5 6 6 6 6 7 7 7 6 4 3 7 10 13 15 15 16 19 20 20 21 20 22 25 24 23 24 23 22 22 21 20 19 18 16 15 15 14 13 11 10 9 9 8 9 8 7 7 8 8
4 3 4 3 3 5 9 8 5 4 6 8 7 6 8 7 6 8 6 7 7 3 4 5 4 6 6 2 7 7 7 5 4 4 3 2 3 3 4 6 7 8 8 7 7 5 2 3 6 10 12 12 13 16 18 19 19 19 22 25 23 21 22 23 22 21 21 20 19 18 17 15 15 15 14 13 11 10 9 9 9 8 7 6 7 7
7 4 3 3 3 3 6 5 6 7 6 6 5 7 7 6 6 6 3 3 5 5 3 5 5 5 1 5 6 7 7 6 5 4 3 2 3 4 5 7 8 8 8 8 7 7 5 3 4 6 8 8 9 12 15 16 17 19 22 21 20 20 20 21 21 20 21 21 17 16 16 15 14 14 14 14 12 11 11 10 10 10 9 7 7 8
6 3 5 4 3 3 3 3 3 7 5 3 5 8 4 3 7 7 3 1 1 7 7 5 7 5 3 5 8 9 8 8 7 5 4 4 4 5 7 7 8 8 9 9 8 8 7 6 7 6 5 6 7 9 11 12 13 18 20 17 17 18 16 17 19 18 19 19 16 15 17 17 16 16 15 14 14 14 13 12 11 11 11 10 9 10
4 5 2 3 3 4 1 4 4 6 6 4 5 5 1 2 6 6 5 4 5 9 8 7 10 8 6 5 8 10 10 10 8 7 7 6 5 6 7 7 8 9 9 9 9 8 7 8 10 8 6 4 4 6 8 10 11 13 14 11 12 14 13 12 13 14 15 18 20 22 22 23 23 21 19 16 15 16 16 15 13 12 13 13 12 12
3 7 3 2 2 2 4 5 6 6 7 8 5 2 3 6 7 6 6 7 8 9 7 9 12 10 9 6 9 12 12 11 10 8 8 7 7 7 7 8 9 9 9 9 10 8 8 10 11 10 8 6 5 4 4 6 9 12 12 11 10 9 10 8 8 10 12 15 21 23 22 25 26 22 19 16 15 16 17 18 16 14 14 15 15 15
1 5 3 3 2 1 4 6 7 6 8 7 5 5 5 5 6 6 6 6 8 9 8 10 10 8 8 6 9 13 12 13 11 9 8 8 9 7 7 7 8 9 9 9 9 9 10 10 11 10 9 8 6 5 5 3 3 6 8 10 9 7 7 7 6 7 8 12 16 16 17 21 22 20 19 17 15 16 17 19 18 17 16 15 16 17
2 4 5 3 4 3 5 4 5 5 4 6 7 8 7 5 5 6 7 8 8 8 8 9 10 8 5 4 7 10 11 12 11 10 9 9 10 9 8 7 7 8 8 8 9 9 10 11 12 11 10 9 8 6 6 5 2 0 2 4 5 5 6 7 8 9 8 10 13 14 15 18 18 18 18 18 17 18 18 18 18 19 18 16 17 18
2 3 5 6 4 6 3 2 4 6 5 5 6 8 8 7 7 7 9 9 7 8 9 9 11 7 2 1 5 8 9 10 11 11 10 9 10 9 8 8 7 7 7 8 8 8 9 11 13 13 12 11 11 9 8 7 5 3 2 2 3 4 6 8 9 9 10 10 12 14 16 18 18 18 18 18 19 19 19 18 17 18 18 18 18 19
2 3 6 7 7 9 5 3 2 3 5 7 7 8 9 8 8 9 10 9 8 9 9 9 11 5 3 2 2 6 8 9 9 9 10 9 9 8 8 8 8 7 7 7 7 7 8 10 11 13 13 13 13 10 9 9 9 7 5 3 3 4 5 7 8 9 10 9 11 13 14 15 17 17 18 19 20 21 20 19 18 18 19 19 19 19
1 3 6 7 7 10 7 2 3 3 4 8 8 8 8 8 9 9 9 9 8 9 9 8 10 5 3 3 3 6 7 7 6 7 9 9 7 7 7 7 7 7 7 7 7 7 8 9 10 10 11 12 12 11 10 11 11 10 8 7 6 6 6 6 6 7 8 8 10 12 11 11 12 14 16 17 18 19 18 16 16 17 18 18 17 19
2 4 5 6 6 7 7 6 6 6 6 8 8 6 6 9 10 9 8 8 8 12 13 10 10 7 4 5 5 7 7 7 7 7 8 9 8 7 7 6 6 6 6 7 7 7 7 8 9 9 10 10 10 10 10 11 11 10 9 9 8 8 8 8 6 3 2 4 7 9 8 9 10 13 16 16 16 15 15 15 16 16 17 18 18 20
4 5 4 6 7 6 7 6 3 2 4 6 6 6 6 7 10 9 8 9 9 11 13 11 11 7 4 8 8 8 8 9 9 9 8 9 9 8 7 6 6 6 6 6 7 7 7 7 8 9 9 9 9 9 9 9 9 8 8 8 8 8 8 7 7 7 7 4 4 5 5 7 9 12 15 16 16 16 17 17 18 18 20 21 21 21
4 5 6 9 9 8 9 9 5 6 7 7 7 9 7 6 8 8 8 10 10 10 11 11 12 11 5 8 9 9 9 9 9 10 9 9 9 8 8 7 6 5 5 5 5 6 6 7 8 8 8 8 8 7 7 7 7 6 6 6 6 7 7 9 11 12 10 8 6 6 7 7 9 12 14 15 15 17 17 18 18 20 20 20 20 21
5 6 8 11 12 12 13 13 10 9 11 12 12 12 11 9 10 10 9 11 11 10 10 10 12 14 11 10 11 9 9 8 8 10 10 9 9 9 8 8 7 6 5 5 5 5 5 6 6 7 6 6 5 5 5 5 5 5 5 5 6 6 8 10 11 10 9 8 8 8 8 6 7 9 11 13 14 16 17 18 19 20 20 19 20 22
5 7 8 11 13 14 14 14 13 12 12 14 15 14 13 13 14 14 13 14 13 11 11 11 12 12 10 10 12 9 9 10 10 9 8 8 9 10 10 10 9 8 6 5 5 4 4 4 5 5 5 4 4 4 4 4 4 4 3 4 5 6 7 7 7 6 6 6 7 7 6 6 7 7 8 10 12 14 16 17 18 19 19 19 19 20
4 5 6 10 14 15 15 15 16 16 15 15 16 16 16 16 16 16 16 16 17 17 16 14 13 11 9 11 12 7 4 8 8 7 8 9 10 11 11 11 10 8 7 6 5 4 3 3 4 4 4 4 5 5 5 4 4 4 3 3 4 5 5 5 5 5 5 5 4 5 5 6 7 7 8 9 10 11 13 15 17 18 19 19 19 19
3 3 3 7 12 13 14 15 16 17 18 18 18 18 18 18 18 17 15 15 15 17 16 14 12 10 9 13 15 8 2 5 8 8 9 10 10 11 11 10 9 8 7 6 5 4 3 3 3 3 3 4 5 6 6 5 6 6 6 6 8 8 8 8 7 6 6 6 5 6 6 7 7 8 8 9 10 10 11 13 14 16 17 17 18 16
4 5 5 7 10 11 12 15 17 17 18 19 19 19 19 18 17 15 14 13 13 13 13 13 12 11 8 11 14 10 6 10 12 10 9 8 8 10 10 9 8 8 6 5 5 4 3 2 2 2 3 4 5 5 6 6 7 7 7 8 9 9 9 9 8 8 8 8 9 9 9 8 8 9 9 9 10 10 10 11 12 14 14 14 15 16
5 7 7 8 10 11 12 13 12 11 13 13 11 11 14 16 16 16 16 16 16 13 12 12 10 7 4 5 9 10 9 9 8 6 6 7 8 9 9 9 8 7 6 5 3 3 2 2 2 3 3 4 4 5 6 7 7 6 6 7 7 7 8 8 9 8 8 9 10 10 10 10 10 10 10 10 10 9 9 9 10 11 11 12 15 17
6 6 7 7 9 10 10 9 8 10 10 6 2 3 4 6 10 13 12 11 11 9 9 10 9 6 5 4 6 6 3 3 3 3 3 4 5 7 8 8 7 6 5 3 2 1 2 2 3 4 4 5 5 5 6 6 6 6 6 7 7 8 8 9 9 9 9 10 10 10 10 10 10 10 11 11 11 10 9 9 9 10 11 12 14 17
6 6 7 6 7 9 8 7 9 10 5 1 4 4 3 3 6 8 6 4 6 6 7 9 8 5 4 2 1 1 3 5 5 4 3 3 2 4 6 7 7 6 4 2 1 2 3 3 4 5 5 5 5 6 6 6 6 7 7 7 8 8 9 10 10 10 10 11 10 10 10 10 10 11 11 12 11 10 9 9 9 10 11 12 13 16
7 7 7 6 7 8 7 8 9 7 1 2 2 4 2 2 4 6 5 1 5 5 5 5 3 3 3 2 3 3 3 5 5 4 4 4 3 1 2 4 6 6 3 1 3 4 4 5 6 6 6 6 7 7 7 7 7 8 9 9 10 10 11 12 12 12 13 12 11 11 11 11 11 11 11 12 11 11 10 9 10 10 11 12 13 15
7 7 6 7 7 7 8 9 9 9 8 7 2 4 4 2 2 4 6 2 4 5 4 3 2 2 2 1 1 2 1 4 5 4 5 5 5 4 2 1 0 2 2 3 4 5 5 6 7 7 7 7 8 8 8 9 9 9 10 11 11 12 13 13 13 14 15 14 13 12 12 13 13 12 12 11 11 11 11 10 11 12 13 14 14 16
6 7 6 7 7 7 8 9 8 10 9 3 2 4 4 2 3 4 6 4 2 4 4 3 2 2 2 2 2 2 3 6 7 4 5 4 4 4 3 2 2 2 4 5 6 6 7 7 8 8 9 9 10 9 9 10 10 10 11 11 12 13 13 13 14 15 15 14 13 13 14 14 14 13 12 12 12 11 11 11 12 13 14 16 16 16
6 6 6 7 7 7 8 8 8 9 5 3 3 3 4 2 2 4 5 5 2 7 6 4 4 4 3 3 4 4 5 8 8 3 5 5 5 5 4 4 4 5 7 7 8 8 9 9 10 10 11 11 11 11 10 11 12 12 12 12 12 13 13 13 15 15 15 14 13 13 13 13 14 13 12 12 12 12 12 12 13 14 16 17 17 17
6 5 6 7 8 8 9 8 8 7 2 3 2 3 5 4 2 3 6 4 4 9 8 7 7 6 5 5 6 6 6 8 6 1 6 7 7 6 6 6 7 8 10 10 10 10 11 12 12 12 12 12 13 13 12 13 14 14 14 13 13 14 14 14 16 16 15 14 13 13 13 13 14 13 13 13 13 13 13 13 14 15 17 18 17 17
6 5 6 7 8 8 9 9 8 6 2 4 3 4 5 3 2 6 6 3 7 10 9 8 9 8 7 7 6 6 6 7 6 7 9 9 9 9 10 11 11 12 12 12 12 12 13 14 14 14 15 15 15 15 15 15 15 15 15 15 15 15 15 16 18 17 16 15 14 14 13 13 14 14 13 13 14 14 14 14 15 16 17 16 15 15
5 5 6 7 7 7 7 8 9 5 3 7 7 6 4 3 4 4 4 5 7 10 10 9 10 8 8 8 7 7 8 9 10 11 11 11 11 11 12 14 14 14 15 15 15 15 15 15 15 16 17 17 16 16 16 16 17 17 16 17 17 17 17 18 19 18 17 16 16 15 15 15 14 14 13 14 14 15 16 15 15 16 17 15 15 17
4 5 6 6 6 7 7 8 9 5 2 7 8 6 3 3 4 5 6 7 8 9 10 10 10 8 8 9 9 9 10 11 12 12 12 12 13 13 14 15 16 16 17 18 18 18 18 18 18 19 19 18 18 18 17 18 18 18 18 19 19 18 19 19 19 18 18 17 16 16 16 15 15 14 13 14 15 16 17 15 12 12 13 13 15 19
5 5 6 5 4 5 6 6 4 3 3 6 7 5 4 6 6 7 9 9 9 9 9 8 8 8 9 9 10 12 12 12 13 12 11 12 12 13 14 15 17 18 19 19 20 21 21 21 21 21 21 20 20 19 19 19 20 20 21 21 20 20 20 20 20 19 18 17 16 17 16 16 16 15 15 16 17 16 14 12 10 10 12 15 19 22
2 3 6 6 5 5 7 8 8 9 9 8 8 7 9 10 10 11 12 11 10 10 9 8 9 10 11 12 13 14 13 14 15 14 13 13 14 14 15 17 19 20 20 21 21 21 21 23 23 23 23 22 21 21 20 20 21 22 23 22 21 21 21 21 21 20 19 18 17 17 17 17 17 16 16 17 15 13 12 14 14 13 17 22 25 24
5 6 7 6 7 9 10 10 10 11 11 11 11 11 12 12 12 12 12 11 10 10 10 10 12 13 13 14 15 14 15 16 17 17 17 16 17 17 18 19 21 22 22 23 23 22 22 23 24 24 24 23 21 21 21 21 22 24 25 24 23 22 22 22 22 21 20 19 18 17 17 18 17 17 16 13 11 11 14 16 17 19 24 26 25 24
4 4 5 7 8 9 8 8 9 11 12 13 14 14 14 14 13 12 11 11 11 12 13 13 15 15 16 16 16 16 17 17 18 18 18 17 18 18 18 19 21 22 23 23 23 23 23 23 23 24 24 24 24 24 25 26 26 27 27 27 26 25 25 24 24 24 23 21 19 17 18 19 17 14 11 10 10 11 13 19 24 26 27 25 22 21
3 3 4 8 9 9 10 12 13 15 15 14 13 12 12 13 13 13 13 13 14 15 16 17 17 17 17 17 18 18 18 18 18 18 17 16 17 16 17 20 22 23 24 24 23 23 24 24 24 25 26 27 27 27 28 28 28 28 28 28 27 27 26 26 26 25 24 22 20 19 19 17 14 12 11 11 13 15 18 23 28 29 27 26 25 23
5 5 7 9 9 10 11 13 13 13 14 13 13 13 12 12 14 16 16 16 16 17 18 19 19 18 18 19 18 18 19 19 18 19 19 17 16 16 19 22 24 24 24 24 24 24 25 25 26 27 29 30 29 28 29 29 29 28 28 28 27 26 26 26 25 26 25 23 20 20 17 13 13 15 15 16 18 18 18 19 22 24 24 24 24 24
6 7 8 7 8 9 9 11 12 12 12 12 13 15 16 15 16 18 18 18 18 19 18 19 20 20 21 21 20 18 19 18 18 19 19 17 17 19 22 24 25 25 25 24 24 25 26 27 28 29 31 31 30 30 30 30 29 29 28 28 27 25 25 25 25 26 26 23 21 20 15 12 15 18 19 21 21 20 20 21 21 22 22 22 22 22
6 8 8 8 9 10 12 13 13 11 12 13 15 17 18 17 18 19 20 19 19 18 18 18 19 19 19 20 20 19 17 17 18 20 18 18 20 24 25 25 25 25 25 25 25 26 28 29 29 30 31 31 31 31 31 31 31 30 28 27 26 23 23 24 23 24 24 22 21 18 13 14 18 20 20 21 21 21 21 21 20 20 22 22 21 19
Wind_Direction
255 238 220 233 70 66 59 352 347 2 343 279 234 237 228 218 204 139 108 87 28 276 209 160 275 256 269 61 139 164 198 222 219 209 217 219 216 215 214 215 212 214 200 165 168 174 176 180 178 178 181 178 177 179 182 183 183 183 179 172 168 166 167 167 171 177 183 177 168 171 173 156 146 137 132 128 93 69 71 69 66 60 46 40 44 33
243 248 215 79 49 60 104 155 293 279 259 241 236 230 220 229 213 127 119 111 60 277 210 153 259 241 205 188 139 166 204 216 217 214 216 219 224 228 225 224 220 218 203 169 167 174 176 180 180 179 181 181 180 180 183 184 184 183 180 174 170 168 170 175 175 173 179 179 166 162 159 149 139 129 121 117 107 99 89 79 69 61 55 58 62 55
224 237 118 102 95 104 136 181 204 218 225 226 230 234 226 219 201 135 138 143 114 270 241 162 259 252 205 208 186 184 206 205 210 224 225 222 225 230 231 229 227 223 211 192 181 179 180 182 183 184 186 188 187 182 182 183 181 179 179 176 173 172 173 179 181 175 172 168 152 142 140 131 125 117 100 97 104 105 95 81 71 69 69 71 72 68
234 149 113 115 141 166 169 182 199 204 213 223 221 226 222 176 207 195 155 158 157 272 285 268 264 264 227 216 210 192 196 185 189 223 235 241 241 241 243 240 234 228 219 211 199 184 181 183 184 188 190 187 184 182 179 180 179 179 180 178 175 174 174 181 184 176 165 160 151 137 131 122 117 120 113 109 110 107 95 81 75 75 72 70 69 68
272 96 113 153 187 207 195 177 198 218 206 203 219 237 235 170 227 257 141 160 186 190 273 269 255 253 224 213 206 178 185 199 198 207 211 221 237 246 253 251 244 237 231 225 212 194 187 187 187 190 191 185 183 183 180 179 179 178 180 179 176 173 174 182 185 177 166 161 156 145 139 133 127 132 135 133 126 117 103 86 81 81 74 70 70 69
97 91 140 198 201 215 209 192 202 229 230 197 206 231 249 227 222 249 206 209 232 199 188 277 267 245 190 206 202 171 184 193 186 198 204 199 206 220 234 241 243 242 239 236 225 210 197 193 190 190 189 186 187 186 181 180 180 179 179 178 174 171 174 182 187 184 174 165 162 157 154 152 149 149 148 140 130 121 103 88 88 87 82 80 79 77
95 118 197 211 213 212 217 221 194 213 250 218 182 202 226 233 218 227 224 226 255 240 137 256 274 261 190 207 186 168 196 197 185 189 191 197 207 215 226 230 237 240 240 241 236 226 212 200 194 192 189 188 190 186 179 178 178 177 175 174 173 171 174 182 188 190 182 174 172 169 166 162 161 155 140 131 123 120 110 96 95 93 90 89 87 85
133 153 178 206 223 216 223 225 174 204 247 236 139 187 206 214 211 220 230 234 266 302 191 213 256 274 252 218 153 165 224 222 209 200 184 187 201 214 237 241 246 251 253 254 246 235 224 211 202 196 191 191 190 183 176 174 175 175 174 176 176 173 176 183 190 193 190 183 179 178 172 167 167 155 136 135 131 126 121 109 101 99 95 91 88 89
159 188 192 211 229 229 234 219 150 208 235 67 108 200 204 210 215 219 239 250 258 286 254 217 210 253 256 218 160 187 230 220 203 197 183 172 170 184 225 253 264 269 270 269 261 248 234 221 211 203 196 192 187 181 177 174 172 171 175 180 179 177 180 184 190 194 195 191 185 183 176 169 169 160 145 146 143 136 132 124 115 110 105 96 90 92
159 212 226 235 241 240 242 51 115 221 223 105 158 188 189 201 214 223 247 261 238 248 267 238 185 245 270 239 201 201 227 218 178 171 170 106 85 67 31 317 295 287 280 274 268 261 247 231 219 210 201 191 184 181 176 171 170 172 177 182 181 181 182 186 191 195 198 196 191 188 180 172 170 166 162 157 150 150 148 140 134 128 123 114 104 103
150 144 246 245 248 269 12 68 42 258 179 147 180 188 193 200 208 222 242 264 254 250 257 208 174 242 274 256 230 193 103 22 40 207 8 17 2 1 2 344 331 324 308 289 276 268 250 233 218 209 200 186 178 177 173 168 171 174 179 181 180 183 186 188 192 196 199 200 198 195 187 179 175 173 175 172 165 165 164 158 152 146 141 133 126 122
193 195 194 212 228 247 207 165 126 183 183 190 204 209 216 215 214 231 229 227 251 257 223 143 159 217 253 257 190 114 89 58 27 357 359 352 348 354 349 343 344 338 326 307 291 278 248 222 203 196 192 181 172 170 170 170 172 176 179 178 178 185 190 191 194 197 200 201 201 200 194 186 181 180 185 187 182 179 176 172 165 157 155 151 147 143
226 201 161 167 194 215 221 202 166 182 200 210 222 225 233 233 225 239 238 229 245 240 125 131 166 215 249 243 124 118 97 74 51 17 0 347 351 353 346 350 353 349 348 334 314 293 247 212 189 185 186 181 173 173 174 172 173 176 177 179 182 188 192 193 195 196 199 203 204 204 201 194 188 187 192 196 193 191 187 182 176 170 170 168 166 163
236 154 148 177 172 196 224 216 188 193 202 212 224 229 240 245 240 243 243 245 252 220 114 130 175 233 251 207 106 109 97 82 74 50 21 357 352 347 349 2 10 12 10 357 347 334 253 206 185 180 185 186 182 181 181 176 177 177 177 184 189 191 192 194 196 197 199 204 207 207 206 200 195 191 193 199 199 197 196 189 184 183 185 182 179 178
263 182 159 188 133 175 220 237 268 271 216 218 232 238 245 251 251 256 259 260 264 250 126 141 183 246 247 136 94 103 109 102 91 79 57 13 358 1 12 20 25 27 24 17 13 13 9 188 178 173 178 185 187 188 185 181 181 180 182 189 194 192 192 193 195 196 199 205 209 210 212 208 202 197 195 199 202 200 201 197 190 189 192 192 188 184
267 261 99 84 89 170 222 252 286 281 237 213 229 238 245 253 251 259 279 298 296 280 219 183 220 256 206 125 127 131 127 123 118 112 106 75 56 51 42 33 31 33 31 28 27 25 37 96 130 144 160 169 175 180 181 182 183 183 187 194 196 193 192 193 194 195 199 204 207 210 214 214 210 205 200 200 201 201 202 201 199 198 195 194 191 185
255 248 107 116 150 163 269 291 250 258 258 197 223 240 247 281 264 260 251 116 283 269 254 229 237 235 180 159 155 151 145 142 144 142 127 101 84 70 51 36 32 36 36 37 38 31 31 65 90 103 129 152 165 171 175 181 183 187 191 195 194 193 191 190 191 193 195 196 201 210 216 218 217 216 211 204 202 205 208 209 206 203 197 192 190 185
281 267 189 203 210 126 64 282 227 234 260 248 238 242 214 259 257 253 253 230 227 253 255 239 238 233 231 211 164 164 165 155 156 149 130 115 95 76 59 48 40 37 37 42 50 45 37 49 64 76 92 120 157 175 180 187 189 194 200 201 198 198 196 187 181 185 185 186 200 213 220 223 223 222 220 214 208 210 215 217 212 205 199 193 189 184
286 267 231 195 242 136 147 241 237 206 229 257 276 262 224 246 243 226 244 255 250 257 258 246 241 239 249 226 165 176 178 161 162 156 140 123 101 84 68 57 47 41 37 38 45 46 45 50 56 62 72 89 111 132 162 190 199 205 215 218 215 212 207 197 178 178 183 192 206 215 220 224 225 224 223 221 215 211 214 220 219 213 206 196 190 186
240 262 244 138 128 191 205 229 243 213 203 231 256 244 233 253 261 245 240 252 258 261 263 261 254 244 255 240 181 184 178 164 164 156 141 123 106 95 80 66 51 46 41 37 43 46 49 54 57 60 61 68 82 99 111 133 190 209 217 220 225 231 228 225 216 203 199 201 210 216 220 223 224 225 225 226 224 219 217 220 220 221 217 203 194 189
220 243 254 208 147 220 237 225 265 279 236 226 233 235 229 234 259 262 249 245 254 261 261 265 264 257 268 256 203 192 176 166 165 154 144 129 115 104 92 81 65 57 49 42 45 49 53 57 59 61 61 60 57 63 87 96 94 169 227 227 235 252 252 247 245 240 231 215 214 219 222 225 227 226 226 226 228 229 228 224 219 220 220 210 202 194
256 234 251 259 233 240 250 65 354 332 320 282 261 252 248 244 251 257 253 248 248 258 263 265 266 268 311 269 212 188 172 168 164 155 147 136 125 116 104 98 88 76 66 58 55 53 55 57 60 62 62 63 58 48 57 73 72 47 0 315 296 286 275 268 262 256 250 237 229 228 228 231 233 232 231 229 229 231 233 230 223 219 216 212 207 200
324 268 255 261 255 259 277 62 36 306 299 286 270 265 267 260 252 252 255 259 255 255 263 269 268 268 59 34 179 156 159 163 159 155 149 138 127 121 114 108 103 94 86 79 71 67 64 63 65 68 67 66 66 59 58 67 68 56 42 24 355 336 304 284 271 260 257 254 249 246 243 241 240 240 238 234 233 234 232 230 226 221 218 214 210 205
209 255 253 257 254 259 260 196 176 203 251 262 251 251 266 265 264 266 269 276 273 262 261 262 261 249 103 71 97 128 144 149 147 156 154 142 131 127 121 113 107 102 99 94 85 79 77 74 72 71 69 68 68 63 57 59 63 59 51 51 49 34 6 324 287 257 252 257 259 258 257 256 257 258 255 249 245 241 235 231 227 222 221 218 210 206
240 249 251 263 261 251 239 222 213 205 219 245 251 254 266 269 271 270 268 271 263 257 258 256 261 255 153 142 156 148 157 168 167 170 163 152 147 142 131 121 116 111 107 101 94 86 80 75 72 69 66 66 65 61 53 52 55 53 47 45 48 44 23 354 340 334 282 265 265 264 266 270 274 273 270 266 262 255 247 240 235 227 224 223 217 210
253 268 261 264 264 255 249 248 249 243 240 246 254 259 262 267 270 266 259 257 250 256 261 257 266 272 154 156 180 175 179 188 180 174 173 164 157 151 143 138 134 127 118 108 100 91 83 75 70 68 65 63 62 59 57 55 53 50 47 40 40 48 36 7 6 27 31 5 309 296 306 304 290 277 269 263 259 256 251 245 239 231 230 229 222 212
251 266 257 257 263 267 273 283 318 334 298 272 263 262 260 265 272 269 258 255 257 263 259 249 260 270 225 189 201 198 201 204 186 178 180 169 160 156 154 152 150 145 135 121 111 101 95 87 76 71 68 63 61 59 61 62 56 49 47 40 37 45 38 26 29 32 27 18 4 357 359 338 306 287 276 268 262 258 255 249 244 238 234 230 224 216
253 254 252 255 261 266 274 282 293 298 285 277 275 272 270 267 262 257 255 263 272 270 259 255 263 265 252 235 234 226 217 216 200 189 187 176 168 165 161 162 162 159 151 136 121 105 96 93 85 78 72 64 59 60 64 69 67 58 50 43 38 34 30 29 33 31 22 19 19 17 10 344 310 294 285 279 273 267 260 255 251 246 240 232 226 222
265 261 260 259 262 264 267 270 272 271 269 270 271 271 271 267 259 253 254 260 266 264 263 273 277 267 254 255 263 255 229 225 219 202 191 180 175 173 170 173 176 173 166 154 133 110 90 82 74 65 61 54 45 47 53 59 65 63 56 49 44 38 31 28 29 27 22 23 20 10 354 330 311 299 290 283 278 273 267 261 256 252 247 239 230 226
276 270 271 269 270 270 268 268 266 264 262 262 263 263 263 263 260 258 257 257 259 261 263 273 280 273 260 263 275 286 254 239 232 202 189 186 180 178 179 182 183 177 169 155 133 115 92 73 61 52 45 31 18 17 20 22 23 25 30 35 37 38 31 21 18 20 18 17 10 350 329 317 308 297 290 284 278 274 270 266 262 257 251 246 240 232
251 279 304 284 275 271 269 269 265 262 263 263 260 259 260 260 259 258 258 256 257 262 265 269 273 272 266 264 266 274 275 239 226 199 193 192 185 183 186 188 185 176 166 153 137 126 112 95 78 52 30 15 6 1 1 3 358 358 2 3 2 2 0 357 355 356 1 360 348 331 318 311 303 296 290 285 280 274 267 263 261 258 255 250 242 224
245 269 281 274 270 270 270 268 265 266 270 267 262 258 256 256 257 256 256 255 254 258 263 262 262 267 271 263 257 251 236 237 236 218 196 183 181 186 189 188 182 173 165 154 142 131 117 101 81 48 15 358 351 346 348 351 347 346 349 348 346 343 342 342 338 337 344 342 334 327 319 311 307 302 295 285 279 273 265 260 256 253 253 247 232 212
264 271 274 269 270 274 274 274 277 278 273 269 265 260 253 251 253 255 256 258 256 254 258 260 264 285 316 279 258 252 240 239 243 221 186 173 175 186 192 189 181 169 157 148 143 133 108 69 41 25 358 339 333 333 336 335 331 329 329 328 329 330 329 329 327 326 326 322 320 318 314 309 306 302 296 287 281 271 261 257 253 245 241 237 231 224
263 267 271 269 270 272 274 281 282 270 263 269 348 11 309 277 270 269 270 276 275 269 275 279 281 301 326 303 276 271 241 176 141 133 150 167 173 181 189 189 177 161 153 148 139 106 62 26 4 351 336 324 322 324 321 317 314 314 315 317 320 322 322 321 321 321 315 309 310 310 308 306 302 297 293 288 280 270 256 250 251 247 240 232 228 229
260 261 263 263 264 269 274 271 260 258 263 74 78 55 15 339 313 296 293 333 338 308 290 291 295 309 330 337 335 47 104 116 123 127 129 139 163 184 193 193 184 174 168 152 69 19 4 350 335 323 315 311 310 308 304 305 306 305 305 311 314 315 317 319 319 319 314 310 311 312 313 310 304 297 293 287 279 270 259 248 244 247 244 234 224 221
255 256 257 257 257 260 260 250 249 261 301 138 127 58 24 282 305 296 268 13 24 342 302 293 308 358 21 54 82 91 118 133 132 121 111 102 91 113 187 201 202 196 189 339 342 339 333 322 313 306 301 300 300 300 303 307 309 307 307 311 314 317 321 321 321 320 318 317 318 320 319 315 307 300 293 287 279 267 258 247 239 238 238 234 225 215
247 253 253 254 254 255 258 257 259 271 272 250 224 51 24 308 334 313 273 263 41 11 340 328 330 346 344 7 63 57 150 179 174 142 111 95 81 70 64 58 243 233 261 307 311 313 312 306 303 301 299 297 297 300 305 307 307 307 307 310 314 317 319 319 318 317 316 317 319 320 319 316 310 302 292 284 274 263 253 245 239 234 230 230 225 213
235 253 258 257 255 252 259 266 266 267 271 271 95 65 36 353 352 326 283 257 73 34 354 343 343 324 310 300 298 280 228 226 222 169 97 68 56 48 25 17 5 312 302 305 305 305 304 302 300 298 296 295 294 297 299 301 302 300 298 301 306 308 310 310 309 310 311 313 315 315 314 313 308 301 291 282 272 262 250 242 238 234 228 227 226 216
229 247 255 257 258 255 257 263 265 263 268 72 72 35 27 17 2 340 271 238 54 24 352 326 317 306 308 320 302 276 249 245 235 162 71 19 5 14 349 329 326 315 307 306 306 307 308 305 299 294 291 291 293 295 294 294 293 290 288 289 292 295 297 297 300 303 305 307 307 307 307 306 303 296 288 279 270 260 250 242 239 236 229 225 224 215
224 235 244 249 252 255 256 258 264 271 298 69 61 14 24 29 0 291 252 243 11 0 342 333 322 305 302 310 294 270 261 262 258 16 24 347 328 335 328 319 318 312 305 305 307 309 308 303 298 295 295 295 295 295 292 290 288 284 282 281 281 283 285 287 293 297 299 299 298 298 297 297 296 290 281 274 267 259 251 244 241 238 231 225 220 211
245 246 254 257 257 257 256 257 262 269 0 46 12 346 5 1 268 256 261 312 344 329 327 331 318 305 304 303 289 275 282 293 302 322 330 319 313 318 316 311 310 309 306 306 308 308 304 299 297 297 295 294 293 291 289 288 284 281 280 278 277 277 278 283 289 292 291 291 290 289 288 289 289 285 278 270 263 258 251 244 239 237 229 220 209 194
269 267 262 259 260 261 258 262 266 260 60 39 356 332 331 300 265 275 301 315 313 313 317 314 302 299 300 295 288 286 294 303 302 298 302 308 310 312 311 310 311 309 308 307 306 305 302 298 296 294 292 291 289 287 286 284 280 279 278 276 274 275 278 282 286 287 285 284 284 284 283 283 283 280 273 265 259 256 252 243 236 232 223 208 187 169
276 279 268 257 263 269 260 257 262 258 55 29 355 341 337 305 308 329 320 301 300 306 308 302 298 299 299 295 290 286 288 293 293 292 296 302 304 304 304 305 305 304 304 305 303 302 301 297 293 290 289 289 287 284 282 279 276 274 272 269 269 272 274 276 279 280 279 277 278 278 276 277 279 276 269 259 251 249 247 239 228 221 212 193 168 153
265 265 273 276 283 276 257 254 277 310 349 350 334 320 314 311 312 313 306 299 297 296 300 304 301 301 305 303 295 291 290 289 288 288 290 292 293 295 296 297 298 298 299 298 297 297 295 291 287 285 284 283 281 279 277 273 272 270 267 266 268 269 269 270 273 273 271 268 268 269 268 272 276 273 265 255 248 246 241 222 198 183 172 157 143 135
271 285 292 292 289 281 271 280 305 311 302 302 305 300 298 296 293 292 292 292 291 290 294 297 294 294 297 293 288 287 286 284 284 285 285 286 287 287 288 290 291 292 292 290 288 287 285 283 282 281 280 279 277 275 272 269 269 270 270 270 271 269 268 268 268 267 266 263 260 261 262 266 269 268 264 254 241 227 207 188 172 159 151 145 139 133
284 294 294 286 281 283 278 277 286 290 289 293 296 295 296 293 289 288 288 286 287 291 290 289 291 293 292 288 287 284 281 283 285 285 285 287 287 287 287 287 287 287 286 285 283 282 280 279 279 280 280 278 276 274 272 269 269 270 272 273 272 269 268 267 266 265 263 260 259 259 258 258 261 263 258 241 212 195 191 182 165 149 143 142 140 139
292 315 299 282 281 285 281 277 283 286 290 295 295 292 292 288 284 286 286 285 288 290 288 287 288 289 289 287 285 283 282 283 284 284 285 285 285 286 287 286 286 286 285 284 284 284 282 279 278 279 280 280 279 277 276 274 271 271 272 271 269 267 265 263 262 262 261 259 258 255 251 252 254 247 227 203 185 180 178 168 156 146 143 142 141 141
335 27 305 279 276 279 281 285 290 290 290 292 292 290 291 290 290 293 292 290 289 287 285 284 284 284 285 284 284 285 285 284 283 284 285 284 284 284 284 284 285 285 284 284 284 283 281 280 281 282 283 282 282 280 278 276 274 272 272 270 268 266 264 261 258 257 256 256 253 248 245 245 236 209 186 178 174 163 155 154 150 144 142 144 143 141
305 302 290 286 284 282 281 286 293 295 293 291 290 291 294 297 297 296 294 293 290 287 284 282 280 280 281 281 282 283 283 282 282 283 284 285 285 285 285 285 286 285 285 286 285 283 282 282 283 284 283 282 282 281 279 277 275 274 273 271 268 266 262 258 254 251 249 249 248 245 242 230 205 186 172 166 160 151 144 145 143 139 141 146 147 145
294 287 292 294 287 283 289 299 306 303 295 292 294 297 299 300 299 297 295 293 290 288 288 285 282 279 278 277 276 276 278 281 283 283 284 285 284 284 286 286 287 287 286 285 285 284 284 284 284 284 283 282 282 281 278 277 276 275 273 271 268 264 258 254 250 245 242 240 240 240 232 203 184 178 167 157 149 140 137 139 141 142 144 147 148 148
306 302 303 296 288 289 296 303 307 301 291 293 299 300 301 301 299 296 295 294 293 294 295 294 290 287 283 279 278 278 279 282 284 285 285 284 284 286 287 286 286 286 286 286 286 285 286 286 285 284 283 282 282 281 279 278 277 275 273 269 264 258 252 247 242 238 234 231 231 230 212 181 174 170 161 153 144 136 132 131 133 140 145 146 148 151